Regional Weather Roundup
Issued by NWS Albany, NY

Home | Current Version | Previous Version | Graphics & Text | Print | Product List | Glossary Off
Versions: 1 2 3 4 5 6 7 8 9 10 11 12 13 14 15 16 17 18 19 20 21 22 23 24 25 26 27 28 29 30 31 32 33 34 35 36 37 38 39 40 41 42 43 44 45 46 47 48 49 50

271
ASUS41 KALY 122010
RWRALY

NEW YORK STATE HOURLY WEATHER ROUNDUP
NATIONAL WEATHER SERVICE ALBANY NY
300 PM EST FRI FEB 12 2016

NOTE: "FAIR" INDICATES FEW OR NO CLOUDS BELOW 12,000 FEET WITH NO
SIGNIFICANT WEATHER AND/OR NO OBSTRUCTIONS TO VISIBILITY.

NYZ032-033-038>043-046>054-057>066-NYZ062>081-122100-
EAST


CITY           SKY/WX    TMP DP  RH WIND       PRES   REMARKS
ALBANY         CLOUDY    24   2  38 S12       29.99F WCI  13
GLENS FALLS    CLOUDY    22   3  44 S15       29.96F WCI   9
POUGHKEEPSIE   CLOUDY    27  -1  30 SW8       30.02F WCI  19
NEWBURGH       MOSUNNY   25   3  39 SW9G17    30.01F WCI  15
MONTGOMERY     CLOUDY    25   2  37 SW13      30.00F WCI  14
WHITE PLAINS   PTSUNNY   24  -2  32 S5        30.03F WCI  18
ISLIP          CLOUDY    23   7  50 SW15      30.09F WCI  10
NEW YORK CITY  CLOUDY    26   0  32 SW13      30.07F WCI  15
CENTRAL PARK   CLOUDY    26  -1  31 VRB5      30.08F WCI  20
$$

NYZ005>009-017-018-044>046-055-056-122100-
CENTRAL


CITY           SKY/WX    TMP DP  RH WIND       PRES   REMARKS
FULTON         CLOUDY    26   7  44 SW13G20   29.88F WCI  15
SYRACUSE       PTSUNNY   22   6  50 S18       29.90F WCI   7
ROME           CLOUDY    22   6  50 S7        29.93F WCI  13
ELMIRA         PTSUNNY   21   7  54 SW15      29.91F WCI   8
BINGHAMTON     CLOUDY    16   3  56 SW12G22   29.86F WCI   3
MONTICELLO     CLOUDY    19   1  45 SW6       29.92F WCI  11
$$

NYZ026>034-041>043-122100-
NORTH


CITY           SKY/WX    TMP DP  RH WIND       PRES   REMARKS
WATERTOWN      LGT SNOW  23  13  65 SW16G26   29.83F WCI  10
FORT DRUM      NOT AVBL
MASSENA        LGT SNOW  22  15  75 S14       29.83F VSB 1   WCI   9
SARANAC LAKE   PTSUNNY   18   3  52 SW15G22   29.74F WCI   4
PLATTSBURGH    CLOUDY    20   8  60 SE18      29.89F WCI   5
$$

NYZ001>004-010>016-019>021-122100-
WEST


CITY           SKY/WX    TMP DP  RH WIND       PRES   REMARKS
NIAGARA FALLS  LGT SNOW  22  20  92 SW16G25   29.85F WCI   8
BUFFALO        CLOUDY    22  12  65 SW25G37   29.85F WCI   5
DUNKIRK        PTSUNNY   22   6  50 SW22G29   29.90F WCI   6
JAMESTOWN      MOSUNNY   18   5  57 SW15G23   29.83F WCI   3
WELLSVILLE     CLOUDY    16   4  59 SW13G25   29.82F WCI   2
ROCHESTER      PTSUNNY   25   8  48 SW22      29.86F WCI  10
PENN YAN       MOSUNNY   24   4  42 SW17G25   29.87F WCI  11
$$

             KEY
       WCI = WIND CHILL INDEX
       VSB = VISIBILITY
       HX  = HEAT INDEX
$$




USA.gov is the U.S. government's official web portal to all federal, state and local government web resources and services.